APSTAR 6C (43450 NORAD) Tracking and Keplerian Element Data

This shows tracking and keplerian element data for the satellite.

Feedback or suggestion? Click here.




ElementValue
Catalog43450
NameAPSTAR 6C
Epoch Orbit357
Epoch Day106.88372848
Epoch Year2019
RAAN180.9279
Inclination0.0104
Eccentricity0.0003016
Argument of Perigee242.9455
Mean Anonmoly233.0051
Mean Motion1.00271384
Decay Rate-3.39E-06
L11 43450U 18041A 19106.88372848 -.00000339 00000-0 00000-0 0 9991
L22 43450 0.0104 180.9279 0003016 242.9455 233.0051 1.00271384 3575

Live tracking and technical data element details for APSTAR 6C (NORAD 43450). APSTAR 6C can be tracked NOW for your location showing map with azimuth and elevation plus other details from your city location.

Track the satellite on the map from your city or location and see movement details for azimuth, elevation, latitude, longitude, range, height, and movement on the map or in text.







IsCatalogInMostPopularTable: catalog: 43450, numindb: 143
Update: records affected: 1



GetName: 43450 APSTAR 6C

Hit Count: updated at: Fri, 19 Apr 2019 21:07:16 GMT